GFSSW_250_spd_000.txt.gz
Wind_Speed
75 81 82 87 94 90 91 101 92 92 93 94 85 86 84 85 84 81 77 80 82 74 72 76 80 84 77 72 68 64 64 69 74 74 68 67 65 67 66 60 60 64 64 66 71
69 72 78 84 88 92 90 92 95 93 96 95 93 90 86 84 86 83 84 86 87 81 79 83 81 80 77 76 70 68 63 70 77 73 69 69 66 67 63 64 67 66 67 67 70
65 70 74 78 82 83 86 89 91 96 100 101 102 99 94 87 85 80 87 88 89 85 79 82 84 83 80 80 74 71 61 71 73 75 69 70 67 65 64 67 68 67 71 73 72
59 65 68 71 74 79 83 87 89 94 98 100 100 92 97 96 89 91 91 88 90 91 85 79 84 83 79 78 80 73 67 71 74 76 71 70 66 65 67 68 67 70 70 72 68
56 58 62 69 72 74 77 81 88 90 92 91 96 98 97 94 86 92 93 95 92 96 96 94 91 87 81 77 79 70 68 70 69 72 73 71 65 65 71 67 65 66 73 68 66
46 53 57 61 66 71 75 78 80 85 90 92 92 96 96 94 86 93 89 89 90 91 96 96 94 92 84 74 78 74 72 67 67 69 71 72 67 69 75 69 67 70 68 64 66
44 46 49 53 59 64 70 77 80 82 82 83 87 93 93 82 87 94 95 91 92 95 91 91 92 91 87 84 82 77 73 69 67 68 69 76 61 70 71 67 67 68 62 66 67
48 51 53 56 59 61 64 68 74 79 80 81 83 85 84 82 88 90 96 95 95 95 96 97 97 94 84 82 77 73 66 64 67 75 74 75 59 74 70 67 67 63 63 67 65
56 60 62 64 68 69 69 71 72 74 80 82 80 85 79 82 85 90 94 94 95 93 93 97 97 91 85 79 75 67 68 72 72 78 83 80 58 75 69 63 65 64 65 63 62
65 66 70 70 72 76 80 81 80 79 78 79 81 80 75 79 83 87 89 89 93 92 91 92 93 90 87 86 77 78 81 80 77 80 83 72 56 68 66 59 65 64 61 59 60
70 75 74 83 84 87 86 91 88 88 84 82 81 80 77 74 73 81 91 89 93 91 88 88 89 79 82 87 86 86 81 75 75 80 81 65 56 61 64 60 62 60 56 57 58
77 79 83 85 91 97 103 103 100 98 94 94 90 86 80 77 74 78 85 89 89 85 86 86 73 77 84 86 84 81 79 72 72 78 76 66 60 58 60 58 56 54 55 57 50
77 81 87 92 97 101 111 113 112 110 109 102 101 96 92 87 80 83 81 83 84 87 83 79 66 80 77 77 77 77 73 69 70 79 71 61 54 57 59 54 54 53 56 55 46
80 83 90 99 112 118 119 124 123 121 109 107 115 109 104 99 88 88 85 85 84 80 79 77 74 73 68 70 72 71 72 72 71 74 62 55 53 55 56 53 51 55 53 46 43
84 93 100 103 108 109 111 114 116 123 120 129 119 115 113 105 97 89 90 90 84 83 82 61 61 56 58 56 73 56 70 67 67 63 56 49 51 59 55 52 53 47 45 40 38
92 96 99 101 96 92 87 86 85 89 100 122 119 128 121 116 107 98 94 92 88 87 78 70 68 71 59 60 59 54 50 44 42 42 45 49 50 57 50 39 41 39 35 34 37
94 96 87 79 74 68 69 71 71 72 79 81 95 123 129 125 116 108 101 91 84 82 72 67 63 60 55 50 49 40 32 23 23 37 44 51 44 47 37 37 34 32 30 33 41
87 74 67 63 60 57 56 59 61 64 65 66 78 98 114 128 128 117 105 94 87 87 84 72 63 55 51 48 48 40 37 32 35 43 47 48 21 36 25 30 28 27 33 35 37
69 60 54 52 51 49 49 50 52 54 53 58 68 76 92 113 126 119 109 100 94 90 85 78 69 61 55 56 54 43 27 37 37 39 42 19 23 22 30 27 25 25 27 29 26
58 51 47 46 45 43 41 43 43 42 47 53 61 64 77 97 117 124 114 106 99 94 89 84 74 65 63 60 55 43 41 35 35 31 17 16 25 32 28 25 25 25 21 22 26
51 46 42 41 38 37 36 36 35 38 44 49 58 62 71 85 104 124 118 109 103 97 90 84 75 72 67 48 50 46 36 27 23 20 16 25 33 30 29 26 29 22 19 19 25
48 41 37 36 32 31 30 29 31 35 41 47 54 58 66 79 93 116 124 114 107 100 91 82 76 74 65 57 54 50 41 36 26 22 29 34 38 32 33 32 24 17 17 19 20
44 39 33 32 27 24 25 25 27 33 40 44 49 54 60 73 86 106 119 119 111 102 92 85 76 75 70 59 48 42 46 39 37 38 33 34 31 34 34 29 19 14 18 18 12
41 34 31 28 23 19 20 20 23 31 37 39 45 50 57 67 82 98 112 116 111 107 88 82 73 69 64 53 46 48 50 48 41 37 39 37 34 31 27 20 15 19 21 15 11
41 34 28 25 20 15 14 16 20 27 32 35 41 47 55 63 77 92 105 116 110 107 92 80 76 71 67 61 55 52 56 51 44 44 38 43 35 29 28 25 20 23 20 14 10
44 37 29 22 20 13 12 13 18 25 30 34 39 45 52 59 74 85 101 114 111 105 90 82 79 73 67 66 60 53 53 54 52 54 51 48 40 34 29 24 26 26 22 15 8
43 38 29 22 17 14 6 9 15 21 26 30 34 42 48 56 68 77 94 111 107 104 96 86 81 77 71 70 64 56 49 52 54 52 51 47 40 37 30 32 31 29 25 19 9

GFSSW_250_spd_003.txt.gz
Wind_Speed
66 70 81 87 86 87 88 89 94 92 89 85 85 87 83 83 83 83 82 82 80 74 76 76 78 81 72 67 66 66 63 63 65 64 63 62 60 61 60 63 64 61 60 60 61
60 64 70 76 81 89 92 94 98 100 95 92 90 87 88 87 86 84 86 88 86 78 79 82 84 84 81 79 71 66 64 64 72 71 65 63 64 64 61 62 65 60 62 63 63
62 65 67 71 72 80 85 89 99 98 96 97 98 97 94 92 92 90 89 90 88 83 84 87 87 87 86 84 77 73 61 69 68 67 64 67 69 67 65 64 64 58 63 64 64
54 59 64 69 71 74 79 84 92 96 97 96 99 99 100 94 96 91 95 95 96 91 84 82 83 88 88 85 87 79 68 73 71 73 69 70 68 69 63 65 61 58 62 62 65
51 55 58 62 68 73 75 79 83 84 87 89 92 95 95 97 90 90 90 94 98 100 95 90 87 87 88 88 93 80 76 75 73 77 76 72 70 68 67 69 63 62 62 64 65
43 47 52 56 62 67 71 76 80 82 85 86 89 92 94 91 89 89 88 88 92 97 96 96 94 97 93 86 88 83 79 76 78 76 70 70 74 66 69 71 66 64 63 66 65
41 44 50 55 58 62 67 72 74 76 79 82 85 89 90 80 83 86 96 97 94 97 99 99 98 101 97 94 86 80 79 82 82 78 75 76 69 68 72 71 65 63 65 68 66
49 51 53 56 58 62 67 71 75 76 78 81 83 84 80 82 83 84 91 97 98 94 95 96 99 95 94 92 92 91 82 73 69 75 77 78 59 66 72 70 66 66 68 63 62
59 61 63 64 67 70 72 73 75 77 79 81 82 84 80 83 84 86 87 90 99 92 94 99 97 92 91 88 83 75 71 70 67 65 75 76 72 63 70 66 65 65 65 60 60
68 69 72 75 76 77 79 82 84 85 84 85 84 81 79 83 83 84 91 88 93 92 93 93 92 90 86 77 73 77 78 76 73 75 81 74 65 69 71 69 65 64 64 60 57
74 75 76 80 83 87 89 93 96 94 95 94 91 89 85 84 81 83 94 93 94 95 88 85 89 75 74 83 82 85 84 81 76 77 79 78 70 65 66 68 66 62 60 58 54
78 80 85 87 92 94 96 99 104 106 102 104 103 98 95 93 85 83 91 95 95 91 91 90 73 67 80 79 80 79 76 73 74 73 78 75 72 65 64 62 63 58 58 55 53
80 85 91 97 100 102 105 107 108 108 110 111 110 107 105 101 94 93 92 91 90 91 86 80 56 81 80 76 72 67 64 68 72 75 73 70 66 59 60 58 60 57 57 53 52
79 85 92 96 102 105 108 110 107 109 110 111 118 112 109 109 105 102 96 95 90 86 83 80 72 74 72 66 65 61 71 69 64 61 59 61 51 54 59 55 57 57 54 51 50
78 85 93 97 100 102 104 103 99 100 93 104 111 122 118 114 108 111 108 104 95 91 89 66 64 61 59 54 65 65 70 65 59 56 52 50 35 51 55 58 58 52 49 49 48
87 92 96 96 95 96 97 96 96 94 97 99 97 107 118 122 116 114 114 111 103 96 87 80 73 76 61 69 66 65 58 53 50 50 41 38 37 52 59 55 49 48 49 46 42
89 90 91 91 90 83 79 77 78 77 85 89 92 103 106 110 121 116 120 109 108 99 92 85 74 68 62 57 53 46 47 44 42 39 29 38 34 52 52 42 41 43 43 40 28
81 74 69 66 63 62 60 57 59 61 63 66 69 75 88 104 106 117 118 120 111 104 98 89 79 65 58 53 49 49 47 39 35 27 36 33 36 47 37 34 38 37 30 22 22
69 62 55 52 51 50 49 49 49 50 54 59 59 59 68 81 96 112 116 120 116 110 104 97 84 74 66 61 57 51 37 43 28 21 32 30 35 42 30 32 28 20 18 21 24
61 56 50 44 42 40 43 41 41 44 49 51 51 55 59 68 79 91 112 116 121 117 105 96 86 71 68 68 59 47 42 27 22 27 32 34 41 43 27 20 17 16 20 21 23
54 51 48 41 38 34 34 32 35 38 41 43 47 51 54 60 66 77 94 115 120 116 105 98 90 81 74 57 52 43 33 29 26 33 37 38 39 34 21 16 16 19 21 24 22
50 47 44 39 33 30 27 26 28 31 34 38 41 45 49 56 62 69 83 99 118 114 110 103 92 83 62 64 59 51 41 33 29 38 39 35 36 23 16 19 20 22 22 23 20
48 43 41 36 29 27 23 21 23 25 28 32 35 39 47 53 58 63 73 85 108 115 111 105 96 84 78 64 59 43 37 32 29 33 34 34 31 19 27 23 21 24 21 22 15
45 41 37 34 27 23 19 16 18 20 24 27 30 34 39 47 52 56 67 78 95 116 111 103 91 84 70 59 55 48 42 36 34 37 36 36 25 28 30 25 23 22 21 20 14
46 42 36 33 26 20 16 14 13 16 21 24 25 29 33 40 48 58 65 74 89 109 112 100 90 83 72 62 59 54 51 45 37 43 39 37 32 33 30 24 22 19 21 18 14
50 45 39 33 28 20 16 12 11 13 16 19 22 25 29 37 46 53 54 67 83 99 110 101 92 84 76 65 62 58 52 45 46 45 44 38 37 33 31 27 19 19 25 19 14
53 50 42 34 29 23 15 12 9 11 12 15 19 23 26 34 40 45 50 63 76 94 108 104 94 88 80 67 66 62 55 50 53 50 49 43 44 38 31 26 22 21 28 20 14

GFSSW_250_spd_006.txt.gz
Wind_Speed
55 58 68 83 90 90 88 88 86 86 86 84 84 86 88 83 85 81 79 85 83 79 76 78 80 78 74 73 71 66 61 56 58 62 63 64 64 56 61 63 67 64 61 57 56
59 58 58 67 79 86 91 91 89 87 87 89 86 88 86 85 84 83 86 86 87 82 83 82 80 81 79 78 73 71 66 62 68 69 68 62 65 66 65 67 67 69 66 62 63
63 61 61 60 65 76 87 94 93 92 92 92 91 93 93 91 90 89 87 87 85 86 87 85 84 84 84 83 77 78 69 71 70 72 73 70 65 64 64 66 74 71 69 69 66
55 59 63 66 68 68 72 85 94 94 97 99 97 97 97 98 100 96 95 96 95 94 93 89 87 86 88 87 87 83 76 79 73 79 77 69 73 65 66 68 76 72 70 61 68
41 49 55 61 66 71 74 76 80 83 88 98 99 100 102 100 101 103 103 104 102 99 97 96 95 89 85 86 89 78 78 82 78 84 81 75 74 71 72 77 79 76 71 70 69
36 40 46 53 59 64 67 72 77 80 85 90 97 101 104 103 103 106 105 103 101 102 106 103 98 98 96 92 89 82 81 84 84 84 82 79 74 77 74 77 76 75 73 72 66
46 48 49 52 56 60 64 70 74 78 80 84 88 91 93 96 100 101 105 106 100 101 101 103 108 106 92 95 91 92 93 86 80 76 75 84 69 75 77 81 80 80 77 73 68
56 57 58 59 60 63 67 70 72 74 77 83 86 88 88 92 95 93 101 108 110 106 106 106 107 105 100 95 87 89 92 88 80 82 80 83 59 70 71 75 74 76 76 71 66
63 65 67 70 71 72 72 72 74 77 79 80 81 85 86 89 91 95 100 102 106 106 100 103 114 111 107 98 96 87 83 89 84 84 78 82 67 69 81 80 77 74 69 65 59
70 72 78 79 81 82 83 83 83 82 82 82 84 84 87 87 91 92 96 96 100 100 100 98 100 102 104 95 83 83 86 83 82 82 85 84 78 76 79 77 74 68 62 58 57
70 73 76 82 89 91 94 94 94 91 92 92 91 89 89 92 92 89 92 93 94 96 94 94 104 97 72 83 84 91 89 83 78 78 81 83 77 71 72 72 69 65 57 57 59
73 77 80 84 85 89 98 103 105 103 101 103 103 98 97 97 93 95 95 96 96 96 94 99 96 72 80 85 82 84 86 79 72 74 89 82 74 69 65 62 65 64 57 56 61
63 71 79 87 91 94 99 105 110 111 110 112 111 109 107 107 102 102 100 100 97 98 97 95 68 76 84 83 83 78 73 68 77 79 77 68 64 58 60 62 62 60 56 61 58
66 72 78 81 85 89 94 97 103 109 110 112 115 116 115 113 112 109 110 106 102 98 100 96 76 80 80 75 73 67 63 72 71 70 64 65 48 48 55 52 52 57 57 59 57
74 78 82 81 83 84 86 88 88 91 91 96 107 117 121 121 117 117 112 110 105 105 108 84 84 82 74 63 69 61 75 73 69 58 52 52 49 50 50 53 53 49 52 51 49
79 81 83 87 87 87 90 91 93 94 92 88 88 96 104 116 120 122 115 111 111 112 108 96 92 86 69 72 67 72 70 68 58 51 43 49 50 46 46 51 48 48 47 45 48
80 81 75 71 70 67 66 69 73 76 77 84 83 89 92 93 91 97 110 117 113 117 109 102 96 85 79 76 72 67 64 53 39 35 34 39 32 41 43 43 42 42 39 37 43
75 65 61 59 56 54 53 54 57 60 63 65 70 80 87 95 89 89 87 93 107 114 112 111 103 89 79 75 67 58 52 41 35 32 29 28 32 36 38 38 33 29 27 32 31
68 58 55 52 48 46 44 48 49 50 50 51 56 66 72 81 88 91 87 85 89 98 108 113 106 94 88 78 71 60 48 43 35 25 25 23 32 33 34 35 27 18 24 23 28
60 53 51 47 43 41 38 41 39 40 41 45 48 54 62 68 76 82 88 90 88 88 98 106 107 96 86 86 78 61 57 51 36 20 22 29 33 34 33 30 18 23 22 21 20
57 52 47 45 40 35 33 32 33 32 33 38 42 48 52 55 64 68 72 81 92 92 86 87 97 96 95 85 75 69 60 47 27 22 27 32 32 32 25 20 21 20 17 18 19
55 48 43 38 34 27 27 24 24 24 26 32 35 40 44 49 51 55 60 68 75 88 94 89 93 104 88 81 80 73 63 45 37 35 34 30 33 30 26 24 23 19 18 19 19
54 47 41 34 31 25 22 21 18 17 20 25 28 32 38 43 46 48 49 60 64 74 93 88 89 94 94 94 88 73 57 46 38 35 32 34 34 25 32 27 24 21 20 19 24
53 44 39 37 31 28 22 19 15 13 15 18 21 27 31 37 41 45 48 52 57 68 85 90 92 90 100 80 78 69 55 42 35 40 44 42 40 29 32 27 23 21 20 23 24
59 47 42 41 36 30 24 19 15 10 11 14 18 22 26 33 36 39 44 45 54 64 75 90 93 95 96 91 83 71 56 45 39 49 46 46 40 34 35 29 24 23 23 24 20
69 57 46 44 37 31 25 19 17 10 6 11 16 21 25 29 30 30 34 40 51 59 70 90 100 98 97 88 80 68 56 52 53 56 49 39 37 35 38 26 16 18 23 22 15
78 59 53 49 43 34 27 19 15 9 2 8 14 17 22 25 25 28 36 42 45 57 70 89 99 100 96 88 78 71 63 56 57 55 47 37 38 30 27 19 20 21 21 23 17

GFSSW_250_spd_009.txt.gz
Wind_Speed
58 61 67 79 89 91 88 88 87 87 84 86 88 88 85 85 89 84 85 84 82 78 77 76 75 76 75 72 76 77 68 59 59 63 64 62 57 58 53 55 56 60 63 67 64
56 60 62 62 66 77 89 90 95 92 93 88 89 92 92 91 87 87 91 91 87 84 82 80 81 80 77 78 78 75 72 66 69 69 71 69 65 62 60 57 63 67 68 67 64
52 56 60 64 65 66 69 79 92 97 98 97 92 91 94 96 92 94 90 91 90 87 88 86 87 84 82 79 80 81 73 73 73 74 74 72 71 67 63 64 67 72 69 70 68
38 47 57 64 68 71 71 70 77 93 101 103 104 96 98 97 95 91 93 95 94 93 94 91 91 90 87 82 83 82 75 77 79 78 77 74 73 73 73 73 76 76 78 74 70
36 41 46 51 61 71 75 75 74 75 84 101 106 107 104 103 100 99 97 99 104 99 98 93 93 90 88 88 91 79 73 81 78 80 79 78 75 75 75 79 79 79 82 78 74
43 44 46 48 53 59 66 70 78 81 80 83 93 104 109 108 108 106 104 103 101 102 100 101 96 98 93 91 93 81 85 81 79 78 79 79 76 77 74 74 79 83 84 80 74
50 53 54 55 56 57 60 65 70 76 82 85 86 88 92 98 109 110 108 106 105 108 104 106 105 104 96 95 92 90 90 87 85 84 84 86 78 77 76 83 86 87 84 82 80
60 61 62 64 64 66 67 67 68 72 78 82 85 89 88 92 98 102 109 108 104 110 110 110 107 102 99 99 99 98 97 86 81 87 90 94 81 81 85 89 86 86 83 84 87
66 69 71 72 73 73 76 77 76 76 76 78 82 87 88 90 95 97 100 101 102 102 107 111 109 108 105 99 99 99 98 90 86 92 95 102 90 80 86 92 90 87 85 83 76
65 68 71 75 79 82 85 85 86 86 84 84 84 82 87 87 93 95 98 99 101 100 103 105 107 108 104 102 93 83 90 92 92 90 101 103 97 85 88 89 89 87 79 70 72
68 70 73 79 82 85 90 95 93 94 93 96 93 90 87 89 86 88 93 96 98 101 101 100 106 101 92 90 89 90 98 94 91 86 99 98 98 83 82 86 83 77 70 67 70
56 62 67 74 79 85 93 95 99 102 100 104 104 102 100 99 92 89 93 92 96 98 99 106 101 79 82 83 90 95 94 82 79 79 91 93 88 81 77 74 77 73 66 64 65
55 60 65 71 76 81 86 95 102 105 103 107 112 110 109 108 105 100 100 97 96 95 96 103 81 84 83 86 88 85 83 78 81 81 83 84 78 67 67 70 66 68 66 67 64
64 71 76 80 78 80 80 85 87 95 99 109 113 113 117 114 115 112 109 105 102 100 101 98 83 83 85 85 80 74 71 73 70 71 74 75 62 59 65 61 61 61 64 61 59
72 79 79 75 75 74 75 79 80 81 80 93 95 106 117 114 118 121 118 114 110 109 110 90 89 85 87 75 80 67 75 71 66 67 64 61 57 53 62 55 55 56 54 51 53
78 79 77 74 74 75 77 79 82 87 85 88 87 88 96 104 108 114 118 119 117 115 113 98 98 94 83 82 79 73 74 67 64 58 49 51 51 48 47 50 51 51 51 50 51
85 76 68 62 59 57 58 62 68 75 78 83 83 87 93 96 97 100 106 112 124 123 115 105 105 98 91 86 78 76 70 63 56 50 40 43 45 44 40 43 44 44 44 44 46
77 68 57 48 44 43 42 46 51 57 58 65 70 74 83 92 95 100 93 96 108 123 117 114 110 101 92 86 80 77 71 64 54 46 44 45 34 41 33 36 40 39 33 36 35
71 62 53 45 42 36 37 37 40 41 45 50 55 62 69 79 81 87 89 95 99 102 105 112 107 104 101 93 87 76 78 59 60 48 43 34 32 37 32 34 35 28 25 23 20
68 57 51 44 39 35 32 31 31 33 35 39 45 50 57 65 68 75 78 91 93 92 94 104 107 104 102 94 90 88 69 73 58 48 37 34 34 40 30 28 22 16 13 12 11
67 55 46 41 32 28 26 25 25 27 30 35 38 42 47 54 56 61 69 71 83 88 88 89 86 98 101 99 87 82 79 69 63 50 38 36 42 32 26 24 17 15 16 16 18
72 57 48 41 33 28 23 20 18 20 24 28 31 35 38 42 46 49 54 61 70 81 78 83 75 81 90 97 90 86 81 72 63 47 34 36 39 30 24 20 11 19 19 19 16
78 63 53 43 35 29 23 18 14 14 18 20 24 27 31 36 39 42 45 52 58 66 80 79 72 79 86 82 86 88 82 77 67 48 44 42 39 30 24 16 18 20 21 20 20
85 70 56 44 39 33 26 19 14 11 10 12 16 21 25 28 31 33 36 42 46 56 67 75 77 80 76 71 83 84 80 76 70 51 48 47 35 31 26 25 18 22 24 22 17
87 81 64 53 44 34 29 21 15 9 5 7 12 14 18 22 24 26 31 38 43 54 56 67 79 79 74 81 82 78 78 74 66 51 47 51 39 34 30 31 31 25 24 19 20
89 86 76 59 50 39 32 24 19 12 6 3 7 11 14 16 19 24 30 37 42 50 54 65 80 82 82 78 74 77 77 76 67 52 52 53 40 39 31 28 30 29 24 19 19
85 86 79 67 54 45 33 28 23 16 8 2 4 7 11 16 21 27 33 35 38 43 51 61 77 81 80 75 77 78 78 75 66 60 58 53 39 35 31 23 31 29 24 20 22

GFSSW_250_spd_015.txt.gz
Wind_Speed
59 63 66 69 71 77 89 87 77 75 79 80 88 86 86 88 90 89 87 91 90 93 96 95 90 88 81 74 72 78 75 73 69 67 67 70 71 75 75 73 67 63 53 52 56
53 57 62 66 70 76 84 92 93 86 83 80 79 85 88 89 89 88 89 89 89 93 91 92 94 90 90 86 80 79 71 66 71 74 70 69 70 71 74 69 67 67 66 63 62
36 45 55 65 69 72 77 85 95 95 94 90 88 87 87 87 91 90 94 96 92 95 93 89 89 92 88 86 86 85 74 73 75 77 76 74 73 73 72 70 70 70 70 70 71
27 31 39 50 61 69 72 77 88 95 99 99 97 95 93 91 91 88 91 94 90 97 94 93 90 86 82 85 87 88 83 80 77 79 82 78 78 76 73 69 71 70 71 72 77
36 37 39 41 48 59 68 71 76 85 91 94 100 106 107 102 97 99 96 97 97 93 93 92 94 94 89 85 90 80 78 85 84 85 81 80 78 75 76 72 70 72 74 74 76
46 48 48 50 52 56 60 67 74 79 84 89 92 93 99 102 109 111 106 101 100 100 101 98 93 98 92 91 91 88 90 88 91 90 86 83 77 74 71 73 74 77 77 77 80
48 52 56 59 62 64 67 69 72 75 78 82 89 91 90 95 105 112 112 109 109 109 106 106 105 101 94 96 90 90 95 93 86 80 78 86 78 71 76 72 74 78 81 80 83
48 50 55 61 67 72 77 79 80 80 82 83 85 86 86 98 99 103 106 108 110 108 110 117 113 109 105 100 99 95 99 94 84 84 77 94 75 80 78 80 82 83 83 81 78
46 50 51 55 60 65 77 86 89 90 90 88 89 86 85 91 97 103 104 103 103 106 109 111 114 109 109 107 105 100 90 88 83 84 88 96 78 81 82 83 82 81 79 79 80
47 49 53 56 62 64 64 79 89 97 99 98 97 93 94 92 93 95 100 106 106 105 105 106 111 113 111 108 101 102 99 94 86 91 95 98 89 84 81 83 84 81 83 86 86
51 56 59 62 65 70 72 73 84 94 96 106 106 103 101 100 97 96 97 97 102 106 109 107 106 95 88 94 95 104 103 100 97 99 101 93 90 91 84 87 90 88 86 85 84
58 64 68 72 77 76 78 80 86 90 90 101 105 110 110 110 103 100 100 99 98 100 107 111 102 93 94 95 93 96 99 94 99 101 97 95 96 92 84 87 88 87 88 82 81
61 70 76 78 77 83 75 69 69 76 82 94 100 104 113 113 109 109 108 105 103 101 100 99 91 93 99 98 92 87 84 83 87 92 93 94 92 82 80 83 80 81 76 74 73
66 73 76 72 79 85 81 71 64 62 67 77 91 97 104 110 111 114 115 112 109 106 105 94 86 89 94 92 93 88 85 85 85 85 81 85 74 70 74 74 72 68 64 60 60
69 74 67 72 77 78 70 59 50 50 59 73 81 89 93 98 105 112 113 117 114 113 109 93 92 92 89 83 91 78 83 83 85 83 81 73 64 60 66 66 61 58 55 49 47
72 70 67 72 75 69 53 47 43 42 50 60 70 77 85 91 96 100 106 112 116 117 109 101 101 98 89 88 84 79 81 83 84 82 79 62 65 51 54 54 49 48 47 43 44
75 67 68 72 72 65 54 43 36 35 40 47 54 65 77 85 90 95 97 105 111 114 107 109 109 98 97 92 88 83 79 81 79 79 60 52 57 42 45 41 40 38 35 32 36
76 69 71 76 72 65 53 42 37 28 29 39 46 54 64 75 86 90 95 97 100 103 103 104 108 104 99 96 93 89 86 81 72 66 53 51 41 43 40 32 30 29 29 27 25
77 70 71 76 74 63 49 40 34 33 27 28 39 45 51 60 77 88 90 90 95 94 91 100 99 104 104 103 98 94 89 73 74 70 62 53 43 39 32 24 23 26 25 21 24
76 74 73 77 78 63 49 39 33 28 27 25 29 37 44 49 60 68 82 88 87 86 81 94 92 103 106 102 98 96 87 88 77 71 60 55 47 41 31 28 25 27 26 18 25
71 77 73 75 76 67 51 41 33 28 26 22 22 26 34 44 50 54 63 73 83 88 85 83 86 95 97 95 97 95 94 88 79 73 65 58 53 48 34 23 24 18 23 20 24
70 76 75 74 75 68 56 44 39 31 24 22 21 21 25 32 41 48 51 57 66 74 83 84 82 93 89 88 90 93 91 90 85 74 68 63 57 45 33 26 25 24 23 22 18
72 76 78 75 78 81 65 48 40 32 25 19 16 15 19 24 30 38 42 47 52 59 67 72 79 86 84 88 87 88 88 86 83 82 72 66 58 51 42 28 24 25 21 20 21
72 77 84 79 80 80 76 54 43 34 28 22 16 12 12 18 23 27 33 39 45 47 49 55 67 80 84 87 83 81 86 87 86 79 70 65 64 50 38 31 26 24 22 20 23
71 75 79 82 81 81 80 58 43 35 30 24 18 13 8 8 15 21 26 32 35 41 46 48 54 64 73 82 75 78 78 77 73 73 65 65 60 55 41 34 31 25 20 20 18
70 73 79 82 80 80 80 69 47 39 33 28 21 14 9 6 7 11 16 23 29 35 39 41 47 52 59 71 74 71 69 64 64 64 64 66 58 58 48 34 36 28 15 20 14
70 75 75 77 81 78 78 75 54 43 36 31 25 17 10 5 3 6 11 16 21 27 31 36 41 44 50 59 68 63 54 56 55 59 65 63 61 45 43 45 40 27 18 22 21

GFSSW_250_spd_021.txt.gz
Wind_Speed
18 44 64 73 72 72 73 75 82 85 91 92 89 90 87 90 91 95 95 98 100 101 101 100 99 95 91 89 87 85 78 74 75 80 75 78 74 75 77 73 64 63 62 58 62
14 15 37 66 73 73 74 75 78 86 91 87 94 94 92 92 91 89 94 101 103 105 103 106 107 103 100 95 93 86 81 72 71 72 70 70 65 68 74 64 65 68 69 69 66
19 20 20 31 62 75 73 76 77 81 93 99 93 89 87 87 88 93 94 95 99 103 101 103 104 105 100 99 98 93 89 86 78 79 79 74 64 68 69 62 60 63 65 67 65
22 23 27 29 30 46 69 76 75 80 85 92 105 103 98 93 93 93 92 96 97 98 102 101 106 105 100 100 99 98 92 87 84 85 88 87 84 78 73 68 71 69 65 61 62
27 29 30 35 38 41 44 58 74 78 81 87 93 104 107 106 97 104 101 100 101 100 100 101 103 105 106 104 106 102 93 97 93 91 90 90 85 84 82 81 73 71 68 73 71
33 33 34 38 40 48 50 54 58 69 78 85 87 94 99 105 113 106 99 100 105 106 105 106 105 104 106 104 107 102 99 98 96 97 97 95 85 81 72 70 70 69 67 70 71
36 37 39 40 44 44 53 61 63 68 73 80 85 91 94 104 113 115 116 108 105 105 107 108 112 112 106 106 105 104 102 101 97 97 93 91 80 68 68 72 70 72 72 74 75
39 40 41 44 45 49 54 57 68 75 78 80 83 87 92 103 107 114 120 120 117 112 109 110 110 108 105 105 105 106 105 102 95 98 99 102 84 80 82 83 81 82 82 82 81
42 42 43 47 50 53 56 61 64 73 81 86 90 91 94 101 106 112 117 120 123 123 121 118 114 111 109 105 102 101 100 95 95 96 102 101 84 88 94 93 87 89 90 87 76
43 45 45 44 47 50 53 57 64 73 78 87 95 100 104 107 107 110 116 117 120 124 126 128 125 120 112 107 98 98 92 97 100 98 101 102 90 88 87 91 90 86 80 76 77
44 39 39 41 42 46 50 56 61 71 79 87 96 102 110 117 116 115 116 118 121 123 124 129 129 125 118 115 114 108 105 99 99 100 104 91 87 88 90 88 83 79 77 77 76
33 37 38 41 43 48 55 64 69 72 77 82 96 106 112 117 120 121 121 119 119 120 123 126 120 122 124 127 127 121 112 108 104 108 106 96 89 84 84 86 87 83 82 80 79
33 37 39 40 47 51 58 66 69 71 73 69 70 75 87 102 115 121 122 125 123 119 119 122 118 122 125 126 122 122 120 113 113 113 107 103 96 90 90 87 86 85 85 87 87
33 35 38 45 52 57 63 66 66 70 74 67 66 62 70 77 90 109 117 121 123 124 120 116 118 120 121 118 118 116 113 113 119 113 107 111 103 103 100 91 89 90 90 87 87
32 33 41 51 54 56 60 62 63 71 71 55 52 49 55 58 70 86 103 110 118 123 127 121 117 116 117 116 115 111 111 111 114 115 112 99 90 78 88 86 84 82 81 79 73
29 37 45 49 53 55 57 60 64 64 55 48 42 38 42 49 56 69 87 96 109 109 115 120 123 119 113 113 111 108 107 106 105 104 95 91 86 72 75 76 75 69 62 59 58
34 41 47 47 55 57 58 61 63 63 51 43 42 36 34 40 46 57 70 88 96 101 103 112 120 120 119 116 110 106 104 101 100 95 85 86 77 71 77 75 71 63 62 61 60
40 45 48 56 57 60 63 62 65 58 48 37 39 33 31 33 41 48 58 70 87 94 97 107 111 112 115 115 118 109 103 98 94 87 78 77 68 65 69 65 62 59 59 57 54
46 46 55 58 59 63 65 62 62 53 42 41 32 30 27 30 36 41 45 55 67 85 94 102 103 105 107 108 113 114 104 99 94 85 76 67 56 52 53 54 53 54 50 47 45
47 51 60 61 61 65 67 64 60 54 43 32 31 28 25 25 30 34 37 44 53 68 88 90 94 99 104 103 102 111 109 105 95 84 74 64 54 44 46 43 43 37 37 33 33
47 55 63 62 64 68 69 66 61 55 44 38 30 25 22 22 25 27 32 37 46 56 67 80 83 86 94 96 99 103 107 105 99 89 75 63 51 46 50 41 34 34 31 29 31
47 56 58 60 64 64 65 61 60 57 47 38 34 25 21 18 20 23 26 33 39 43 52 62 77 83 84 89 95 95 96 98 96 89 79 66 53 59 50 39 35 33 30 29 28
52 51 55 58 61 68 67 62 57 55 50 44 36 31 23 14 17 19 23 28 34 38 42 53 69 78 77 77 80 82 86 86 86 87 79 70 62 66 58 48 39 31 29 31 25
52 57 59 59 61 64 64 63 61 58 55 44 40 32 23 20 12 16 19 23 26 31 38 45 57 69 74 74 69 70 73 76 78 78 76 66 71 66 59 49 42 34 33 31 26
55 57 58 59 64 66 63 60 55 58 57 45 38 33 23 17 15 10 13 17 20 26 32 39 45 58 66 61 64 63 62 64 65 70 71 70 74 68 61 53 46 39 32 30 28
57 58 61 59 61 65 63 61 59 56 55 47 36 31 23 18 13 8 6 10 15 20 27 36 40 43 49 52 60 59 57 57 60 63 65 72 70 69 66 55 47 40 32 28 24
57 59 59 59 59 63 62 62 54 56 56 46 37 30 21 16 13 10 6 8 14 19 23 29 33 33 37 44 54 55 51 52 56 59 62 69 72 69 62 55 48 39 35 29 25

GFSSW_250_spd_024.txt.gz
Wind_Speed
9 12 33 56 70 74 74 74 74 77 79 83 87 90 90 91 93 95 91 96 97 97 91 92 92 97 94 93 93 88 80 72 68 73 75 74 71 73 66 65 68 68 68 66 64
14 14 13 22 46 64 75 78 76 76 78 81 85 89 93 92 92 92 90 96 102 100 96 95 98 98 99 98 95 94 88 80 82 83 84 82 75 75 70 68 70 70 76 70 64
20 19 19 21 21 35 55 72 82 80 78 80 83 88 92 93 96 96 93 93 95 104 101 103 107 105 101 102 103 97 89 88 87 82 75 77 72 71 70 70 78 77 68 59 53
27 26 26 26 28 30 35 51 75 81 81 80 82 87 93 96 102 101 99 99 100 99 101 107 109 110 105 103 103 101 98 94 93 94 89 80 73 66 62 65 67 63 62 67 58
33 33 33 33 34 35 38 40 49 73 83 82 83 85 92 100 104 104 103 101 101 104 100 101 104 108 105 106 110 106 99 100 100 102 99 100 92 85 75 76 80 79 73 71 72
37 37 38 39 40 42 43 46 48 52 68 85 86 86 91 99 102 105 105 108 110 109 108 105 104 108 107 105 110 106 106 105 105 100 99 100 94 94 78 80 78 79 78 79 79
39 40 41 40 41 45 48 51 52 56 59 65 80 91 94 97 99 105 108 109 109 108 115 112 111 112 109 108 105 106 109 108 103 101 101 100 97 81 74 81 82 81 81 78 76
42 43 43 43 44 46 50 55 57 59 63 68 71 76 90 98 101 103 107 115 117 112 112 115 114 112 109 108 107 107 107 108 101 100 98 101 90 86 89 92 88 86 89 88 82
46 45 46 47 47 48 50 56 60 63 67 69 75 80 85 91 100 107 110 111 118 120 123 125 121 117 115 113 110 109 104 105 104 103 103 102 87 93 97 98 93 92 90 86 83
46 47 47 48 48 49 51 55 59 62 67 74 79 83 90 96 99 105 112 114 117 119 122 127 129 128 122 120 109 105 103 106 104 104 106 103 94 94 95 95 94 91 89 86 84
38 37 38 38 38 40 42 46 52 59 63 70 80 89 96 99 105 110 112 115 120 120 124 126 128 125 123 128 118 115 109 107 108 103 102 100 98 92 95 92 88 87 89 87 84
29 30 29 32 35 37 41 45 51 57 66 70 79 88 97 106 112 116 117 117 121 124 126 127 122 123 127 130 130 127 120 110 107 104 100 97 94 86 86 85 85 86 85 84 82
29 31 31 33 36 38 45 51 56 59 66 73 75 81 93 98 106 114 119 117 121 122 125 127 125 125 125 127 129 127 124 123 112 110 104 100 92 82 79 75 75 76 80 81 77
26 27 29 31 36 40 46 49 54 57 64 68 72 75 73 73 82 95 109 118 121 122 126 128 125 124 127 127 125 123 125 125 124 123 113 109 94 87 83 79 78 80 85 85 78
25 26 31 36 35 45 48 50 53 57 64 64 69 70 64 61 64 69 83 101 110 116 122 122 127 127 127 122 124 120 123 121 121 117 112 113 107 85 92 84 84 92 89 81 81
28 29 35 36 41 50 53 54 56 59 62 63 67 56 53 45 51 58 66 76 89 101 109 111 116 127 125 125 122 117 116 116 116 112 104 102 105 94 93 91 92 92 90 85 80
29 35 37 42 46 55 53 54 57 61 61 58 61 52 49 45 43 48 57 62 67 79 93 100 108 112 116 121 121 118 112 107 104 103 93 96 92 76 83 88 88 87 85 82 73
37 38 42 45 48 52 52 55 60 60 58 61 58 50 45 46 39 41 49 52 57 61 70 85 103 102 104 109 115 116 113 109 100 92 88 87 76 69 70 73 77 75 72 67 67
42 45 44 45 48 49 52 56 59 59 54 54 59 53 44 41 37 36 40 45 48 53 61 71 81 93 98 102 106 111 109 108 105 94 84 74 68 64 66 65 61 60 59 59 60
45 47 48 51 51 52 54 59 58 55 54 53 50 49 44 41 35 29 32 35 40 44 53 60 66 78 89 94 99 102 106 104 101 95 85 70 63 57 60 57 52 47 44 44 44
46 50 53 57 57 55 56 61 61 54 52 52 53 44 39 35 35 28 26 30 33 37 45 51 58 65 76 87 93 97 97 94 96 91 85 75 63 57 61 54 45 40 36 34 34
46 51 52 57 58 58 55 56 59 58 53 52 54 44 36 31 26 26 23 25 27 32 38 46 51 58 63 73 81 84 88 83 81 85 81 74 68 62 58 54 42 37 33 30 31
49 51 54 55 58 59 58 59 58 55 54 55 54 46 37 30 22 23 18 19 22 25 32 41 47 51 55 63 70 73 78 76 74 73 73 69 68 66 61 51 41 38 30 28 27
54 55 56 57 57 55 55 61 63 61 54 56 53 45 36 28 21 17 15 14 17 22 27 34 43 48 50 54 58 65 66 71 68 63 65 61 70 67 66 53 46 37 30 30 30
52 55 55 59 61 59 57 57 61 61 59 59 56 46 34 25 20 15 13 12 14 18 23 30 40 41 41 47 51 55 57 57 57 62 60 65 69 74 68 60 52 42 34 33 32
55 56 56 61 59 61 58 58 63 61 56 62 59 46 32 23 20 16 13 8 9 14 19 25 32 36 36 41 48 52 54 52 56 58 62 63 78 76 69 64 57 48 38 34 34
58 57 57 62 58 59 57 55 58 61 56 58 55 42 31 22 20 15 12 5 4 10 16 20 26 31 31 35 47 51 56 56 59 62 62 66 82 78 70 65 57 49 43 36 35

GFSSW_250_spd_027.txt.gz
Wind_Speed
12 10 9 27 56 67 72 73 74 73 75 76 78 82 86 90 93 92 94 91 95 89 88 90 95 96 96 94 91 90 86 80 76 81 82 76 72 71 69 69 67 67 67 65 67
18 17 17 16 21 45 64 72 75 75 74 75 78 81 87 89 92 95 94 93 96 93 93 91 92 97 96 97 96 92 84 80 79 79 78 77 76 79 80 75 69 69 64 64 63
23 23 23 23 24 24 34 60 71 75 77 77 78 82 84 91 93 100 99 100 99 100 99 97 98 94 93 96 95 94 88 90 89 90 90 82 77 68 63 68 64 58 59 65 68
33 31 29 30 30 30 30 32 46 68 76 80 82 83 82 87 91 97 105 106 106 105 106 105 107 103 97 97 100 96 92 96 95 95 94 88 86 80 76 65 65 65 71 70 72
39 38 37 36 36 36 36 38 38 40 57 75 84 87 86 87 90 93 101 108 110 109 108 107 103 107 107 103 105 99 93 94 96 99 99 99 88 86 78 77 81 82 65 68 73
44 43 42 39 39 40 41 43 46 46 47 51 68 82 91 92 91 92 96 102 107 108 111 109 108 105 109 108 103 101 99 100 100 101 101 102 96 94 84 86 83 80 73 69 64
46 42 40 40 41 43 45 47 49 51 53 54 56 66 83 94 98 96 97 99 102 109 110 110 113 112 108 106 107 103 105 107 104 105 103 107 104 90 82 86 90 86 84 85 81
45 45 44 44 46 47 47 48 49 50 54 59 61 63 67 77 94 99 101 102 104 106 111 113 114 115 112 110 108 107 108 105 105 108 105 108 96 90 96 93 88 88 90 90 86
48 49 48 47 46 46 46 47 48 50 55 59 64 69 71 74 77 89 103 106 106 108 110 115 118 120 120 116 116 113 108 105 103 105 106 111 93 99 99 96 92 90 90 85 79
39 40 40 39 40 42 43 45 49 52 56 59 63 70 76 80 82 87 91 99 111 112 114 117 120 121 121 123 118 116 112 111 109 108 107 104 92 95 94 94 91 87 84 80 77
35 35 35 32 30 29 32 36 38 44 47 53 59 65 74 81 88 93 97 101 105 114 119 119 122 119 127 126 123 122 121 119 115 115 111 104 98 97 95 90 87 85 84 85 84
28 27 27 29 30 31 33 34 36 39 48 52 57 63 69 77 86 97 102 106 109 112 117 125 124 124 124 126 126 127 123 119 116 115 114 107 99 94 91 88 86 86 83 83 83
24 24 22 24 25 28 30 34 35 39 47 53 59 66 70 73 77 84 96 106 112 115 116 118 119 127 126 126 127 127 124 120 118 117 111 107 98 93 90 86 85 83 81 79 77
19 20 21 23 26 30 33 37 41 48 55 58 61 66 69 71 73 76 79 88 101 111 119 119 119 121 123 129 130 128 125 121 118 120 116 113 96 94 91 86 82 80 81 77 75
26 26 26 30 34 36 39 44 48 53 56 59 63 67 67 67 64 72 72 74 81 93 103 110 115 123 125 120 124 128 127 123 120 116 109 102 94 92 97 89 85 86 86 81 76
28 29 30 33 36 40 43 45 49 52 55 61 65 64 64 63 61 59 63 63 69 76 83 94 102 108 117 124 123 117 121 123 122 116 108 101 95 85 96 98 96 92 89 87 82
35 36 37 38 41 45 49 50 51 53 54 59 62 61 57 58 62 52 53 55 57 63 69 77 87 98 104 109 116 116 116 114 115 112 102 103 94 83 94 97 98 99 97 92 88
40 40 39 39 42 45 50 51 51 52 55 61 60 60 56 52 61 50 45 47 45 48 55 65 72 79 90 95 100 106 110 113 111 104 97 97 88 86 85 83 89 90 89 84 80
41 43 42 42 47 48 51 51 52 52 56 58 61 59 62 62 50 47 40 39 38 41 45 55 59 63 71 80 91 96 93 103 108 105 103 93 85 77 74 78 79 77 75 71 68
46 48 49 49 51 52 55 56 53 54 58 60 58 54 55 61 50 42 37 35 31 34 39 47 51 57 60 68 74 83 85 93 93 95 98 94 90 77 72 72 65 60 62 58 57
43 48 52 53 55 56 59 63 60 58 59 60 57 51 53 51 42 40 35 31 27 28 33 39 44 48 52 57 62 67 72 80 81 84 89 89 88 82 72 67 57 49 48 47 45
48 48 53 55 58 59 59 63 62 62 62 61 56 51 49 44 35 31 29 27 24 23 28 33 37 39 42 48 53 58 61 69 72 77 84 85 86 77 69 67 54 46 44 40 38
51 50 52 56 58 62 63 65 60 62 61 62 56 53 45 38 31 25 24 23 21 18 22 27 31 32 35 39 43 45 50 57 64 71 77 76 78 72 65 66 57 46 41 34 32
53 52 53 58 58 59 62 63 59 62 62 61 57 55 45 34 25 22 21 21 20 15 16 23 26 27 29 32 37 42 50 54 61 67 70 71 75 72 67 66 57 50 42 34 31
55 56 57 61 61 60 64 57 53 57 62 58 57 56 41 31 25 21 18 16 16 14 14 17 20 22 23 28 32 40 50 53 59 66 64 68 70 68 68 64 57 52 41 33 31
57 58 56 59 61 61 63 53 52 57 56 56 55 50 37 29 25 23 19 15 11 9 10 10 13 16 19 25 31 41 51 54 61 61 65 66 67 68 72 63 60 52 40 35 32
56 59 57 57 59 60 58 51 47 54 57 52 54 47 35 28 23 19 16 13 8 5 3 6 10 13 18 27 34 44 56 55 57 62 60 64 68 70 75 66 59 52 43 37 34

GFSSW_250_spd_030.txt.gz
Wind_Speed
16 13 9 8 18 49 64 72 76 77 78 78 79 80 84 88 90 91 94 94 93 94 96 105 102 105 100 97 98 99 91 86 83 81 83 83 80 75 79 73 70 69 65 67 66
22 19 17 15 15 17 37 61 69 76 78 80 81 80 81 84 90 91 93 92 92 91 94 96 103 100 103 105 100 100 96 90 89 85 85 86 80 76 76 75 74 76 72 62 62
27 25 24 21 23 24 26 29 52 71 78 80 80 82 83 83 86 89 92 95 96 94 96 93 94 94 98 101 100 100 96 94 98 98 99 98 89 84 82 77 75 78 76 78 73
33 33 31 28 28 28 33 34 35 43 68 77 83 82 83 84 86 87 91 95 96 98 99 99 99 97 96 96 97 97 94 91 93 99 98 99 97 88 85 78 74 69 73 75 75
41 40 38 37 36 35 35 39 40 41 44 59 76 83 86 85 85 88 91 93 96 100 100 108 106 103 101 99 102 94 94 97 101 102 98 99 92 88 82 78 73 67 65 66 68
46 46 46 44 42 42 39 39 40 46 46 48 51 69 82 88 90 90 92 93 95 97 102 103 113 112 109 105 105 103 101 99 99 102 100 102 97 100 84 89 85 81 80 72 63
48 48 48 47 46 42 42 41 41 44 47 51 53 54 60 76 88 93 96 95 97 100 100 103 109 107 111 110 107 104 106 106 102 101 100 101 102 89 86 89 91 89 84 77 79
42 44 45 46 47 46 45 46 45 47 48 50 54 59 62 64 68 82 94 99 101 101 102 104 107 111 109 118 111 112 115 108 101 105 103 110 99 85 91 95 89 91 92 88 86
36 33 34 37 39 41 42 46 48 50 51 53 55 58 63 67 71 73 78 90 100 105 108 108 109 110 112 115 125 119 112 109 104 111 113 116 104 95 100 101 94 90 91 90 88
28 31 32 33 34 35 35 38 40 43 48 52 56 58 62 66 69 74 78 82 86 96 108 113 112 113 114 119 116 118 124 123 114 109 118 116 103 98 103 101 96 95 92 92 88
27 27 27 27 28 30 32 32 34 36 37 41 45 50 56 63 69 74 79 84 89 91 96 104 113 119 120 120 118 121 122 121 118 118 119 115 104 105 105 102 100 97 93 92 90
24 25 23 23 23 25 28 30 33 37 39 41 45 48 51 56 62 71 77 85 90 95 97 99 102 115 123 125 121 121 121 118 119 121 119 117 109 106 102 97 95 92 93 95 95
21 21 21 22 22 24 26 29 33 36 40 45 49 54 58 61 64 68 72 79 85 92 99 102 107 109 112 119 126 125 123 122 121 121 120 116 110 107 103 98 94 91 89 87 85
24 25 25 27 28 29 33 37 40 43 47 51 56 60 65 68 70 73 72 75 79 83 91 97 107 111 113 113 116 122 126 126 124 120 114 117 111 109 105 100 96 91 90 91 92
31 31 31 33 33 34 35 37 40 44 48 52 56 61 62 66 68 72 74 77 80 83 84 87 96 105 110 114 120 116 118 125 127 121 116 112 113 103 103 101 98 98 100 99 95
35 34 32 32 34 34 34 36 39 42 46 51 54 58 61 65 67 68 69 72 76 78 75 76 86 92 100 105 110 112 118 116 114 119 119 106 112 95 102 102 105 102 99 97 90
40 39 37 38 39 40 40 41 45 48 48 50 53 55 58 60 64 65 66 66 64 65 68 70 76 79 86 93 97 101 108 111 110 109 102 104 113 96 97 102 103 104 101 93 87
42 44 43 42 42 44 45 46 49 49 53 58 54 58 56 56 61 60 56 57 55 56 59 61 64 66 71 78 85 91 94 97 100 101 101 103 95 91 99 100 99 99 96 95 91
43 44 45 46 47 49 49 52 54 54 54 61 58 59 58 59 54 55 53 48 43 42 44 49 56 57 61 66 69 74 80 88 88 89 95 93 90 90 91 96 97 94 92 86 79
43 46 47 48 49 51 53 58 57 59 62 60 56 58 61 55 54 51 43 37 33 33 34 40 47 48 51 56 57 61 68 72 79 78 73 87 91 91 94 92 84 85 80 78 72
45 44 47 50 51 53 57 60 61 61 62 55 57 59 56 52 44 38 32 28 25 26 28 32 35 37 39 45 48 55 57 59 67 71 70 83 83 93 93 88 74 71 70 66 62
47 46 48 52 54 55 57 61 64 64 57 52 57 59 54 47 38 31 26 24 23 21 23 26 26 29 31 36 39 47 49 53 57 63 69 79 88 91 87 84 76 69 62 56 50
49 49 50 52 55 55 57 60 62 62 53 52 56 55 52 42 33 27 25 23 20 20 19 20 22 24 26 31 36 42 46 49 53 57 64 71 76 85 82 79 74 69 65 55 47
47 48 49 52 54 53 55 58 60 57 53 51 55 52 47 38 32 30 25 23 22 18 16 15 17 19 21 27 31 38 42 45 48 55 64 72 81 88 80 73 68 65 61 53 44
42 44 47 49 51 49 53 53 56 53 52 51 53 50 44 37 29 26 23 19 18 16 12 8 12 14 19 24 30 37 40 45 49 55 64 73 76 75 72 72 64 61 57 50 41
35 39 47 47 51 51 48 49 52 49 49 49 51 50 44 36 31 29 25 20 15 13 9 5 7 12 17 22 28 34 37 44 49 56 62 65 67 63 65 66 61 59 53 48 40
39 42 48 47 49 47 48 46 48 49 45 47 49 48 42 34 29 25 21 16 10 6 5 3 4 9 14 18 23 31 38 45 51 58 65 67 71 70 68 63 61 56 52 46 38

GFSSW_250_spd_033.txt.gz
Wind_Speed
24 20 18 17 13 13 52 75 77 79 80 81 82 83 85 86 88 90 91 98 98 101 102 108 103 98 94 92 98 102 96 80 84 91 93 89 86 79 78 79 76 70 73 68 63
30 26 22 18 15 15 16 43 76 77 78 81 81 82 84 86 89 89 92 93 96 97 98 101 109 109 100 94 94 97 96 93 91 81 93 94 91 88 87 79 79 75 73 73 72
33 31 29 28 23 20 20 23 34 65 78 78 80 83 84 85 88 88 92 92 95 96 96 101 99 107 107 111 107 100 92 93 96 102 90 91 96 96 89 81 79 79 77 77 72
38 38 37 35 34 31 28 26 29 33 52 74 78 82 83 86 85 89 91 94 95 97 97 96 97 98 102 100 106 110 105 101 94 104 109 99 99 98 92 82 80 80 79 77 72
45 44 44 43 41 38 36 35 36 36 40 44 61 77 82 87 88 89 90 92 94 96 97 99 103 104 101 100 103 102 97 94 106 108 107 106 105 100 98 91 88 77 72 71 71
45 47 48 49 48 48 46 43 43 43 44 47 50 54 69 83 88 91 91 93 93 95 98 102 105 107 102 103 102 101 102 104 100 104 110 105 105 111 99 98 97 95 93 87 87
37 37 38 40 43 45 47 47 47 46 47 50 53 56 57 61 77 88 92 94 95 97 98 99 103 106 106 107 105 106 104 100 104 103 97 93 96 104 92 99 101 100 95 86 89
37 34 32 34 36 39 42 45 46 49 48 50 53 56 58 62 63 68 83 93 96 98 99 101 103 103 105 109 107 111 110 105 95 103 101 109 102 89 84 87 95 96 94 93 93
23 21 22 24 26 29 33 37 42 47 52 53 55 57 59 63 65 67 70 78 91 98 102 103 103 106 108 109 111 110 108 112 108 109 110 116 103 95 99 98 100 101 97 92 90
20 20 22 23 22 24 28 32 36 40 43 48 55 59 62 63 66 69 73 75 77 83 95 103 107 108 109 112 109 109 115 115 113 118 120 120 109 100 102 104 104 102 97 96 93
23 23 22 21 22 23 24 25 28 31 34 39 43 48 53 60 65 69 73 76 80 82 84 89 99 109 115 115 111 114 116 113 112 115 127 127 117 105 109 110 109 104 100 97 93
22 22 23 23 23 23 24 25 27 29 33 37 40 44 48 52 57 61 68 76 79 83 88 91 93 97 106 115 115 117 118 113 115 116 126 120 118 100 102 111 108 104 103 100 97
28 27 27 27 27 26 28 29 30 32 35 39 42 46 49 53 57 62 64 68 75 82 90 94 96 99 100 102 110 117 120 118 119 120 126 118 119 107 104 103 106 106 102 99 97
33 33 32 32 32 33 33 33 35 38 38 42 44 48 51 55 58 63 68 70 75 76 79 83 90 98 103 102 105 107 111 118 122 125 124 117 120 112 114 113 100 95 98 101 99
38 37 36 36 35 34 35 37 37 37 39 41 43 49 52 55 60 67 69 72 73 76 79 81 85 90 93 96 105 109 110 112 114 121 124 125 120 111 109 113 118 117 103 90 92
42 40 39 41 39 39 38 39 41 42 44 44 50 53 54 58 62 64 70 73 74 76 78 78 84 89 90 96 101 105 106 112 113 113 120 115 119 110 111 110 110 111 108 106 99
42 42 41 42 42 42 42 42 43 47 47 49 52 53 55 57 62 62 63 68 70 73 76 76 79 83 88 90 97 101 102 106 110 113 107 103 110 111 108 116 111 110 107 101 103
40 40 42 42 44 45 45 45 49 51 54 56 55 57 55 51 54 52 57 62 66 66 70 70 74 75 80 77 83 88 92 97 101 102 101 104 106 98 94 108 111 102 99 97 96
38 39 40 42 44 46 48 49 51 55 57 57 56 57 54 50 46 50 52 55 54 52 53 56 61 64 68 70 72 77 79 84 88 91 98 96 86 92 93 95 94 98 101 96 91
34 36 38 41 43 46 50 54 54 56 56 56 56 55 52 51 53 45 43 42 42 42 42 43 48 50 55 58 62 64 67 71 76 81 85 80 76 80 83 88 92 89 90 94 89
33 35 38 40 44 47 51 54 54 54 54 55 55 52 50 53 51 48 40 34 33 32 33 34 38 40 45 47 51 53 57 60 64 67 73 71 71 79 74 84 93 89 79 78 82
34 35 36 39 42 46 47 52 52 51 53 53 51 50 50 53 51 40 33 30 28 26 27 28 30 33 37 41 44 45 49 52 54 62 65 63 64 75 78 80 80 75 74 68 68
28 29 31 33 39 41 44 48 50 47 49 49 48 47 50 49 44 32 28 25 25 22 19 20 23 26 29 34 36 39 44 48 52 50 54 52 58 69 60 66 71 72 73 67 61
35 31 27 29 41 46 48 52 49 45 47 45 47 46 48 46 36 31 28 23 19 17 16 16 16 21 23 30 33 35 39 43 45 45 50 55 63 71 69 70 76 74 72 68 60
43 38 34 37 41 46 47 46 45 40 43 43 44 45 46 46 32 28 26 22 18 15 14 13 13 16 18 25 25 26 31 35 37 43 49 62 67 70 69 81 75 72 67 62 57
53 46 42 40 40 39 40 41 37 35 39 43 40 45 44 45 33 28 29 21 19 16 14 10 10 11 15 20 19 21 26 30 37 41 49 56 61 59 70 63 68 67 60 54 51
62 58 51 47 43 39 36 37 34 34 36 39 36 41 43 40 29 29 25 20 16 14 14 12 8 9 10 15 16 20 22 29 39 44 48 50 48 44 55 63 65 61 53 50 45